Flag Weather past 2 weeks in Izmir, Turkey

Now
55 °F

Sunny.


Feels Like: 53 °F
Forecast: 45 / 65 °F
Wind: 9 mph from North

Location: Izmir / Adnan Menderes

Current Time: Nov 28, 2014 at 4:04:37 PM

Latest Report: Nov 28, 2014 at 3:20 PM


Visibility: 10 mi

Pressure: 30.21 "Hg

Humidity: 63%

Dew point: 43 °F

Location of IzmirLocation

Historic Weather in Izmir — Graph

°F

Izmir temperature yesterday

Maximum temperature yesterday: 55 °F (at 1:50 PM)
Minimum temperature yesterday: 34 °F (at 6:20 AM)
Average temperature yesterday: 46 °F

Past Weeks' High & Low Weather Summary

 TemperatureHumidityPressure
High72 °F (Nov 18, 1:50 PM)100% (Nov 14, 12:20 AM)30.24 "Hg (Nov 14, 12:20 AM)
Low34 °F (Nov 27, 6:20 AM)44% (Nov 24, 12:50 PM)29.80 "Hg (Nov 14, 6:50 AM)
Average54 °F74%30.04 "Hg
* Reported Nov 13 2:20 PM — Nov 28 2:50 PM, Izmir, Weather by CustomWeather, © 2014

Note: Actual official high and low records may vary slightly from our data, if they occured in-between our weather recording intervals... More about our weather records

Advertising

Izmir weather history for previous 24 hours

 ConditionsComfort  
Time TempWeatherWind HumidityBarometerVisibility
2:50 PM
Nov 28
55 °FPartly sunny.13 mph63%30.21 "HgN/A
2:20 PM57 °FPartly sunny.7 mph55%30.21 "HgN/A
1:50 PM57 °FPartly sunny.2 mph55%30.21 "HgN/A
1:20 PM57 °FScattered clouds.3 mph55%30.21 "HgN/A
12:50 PM57 °FScattered clouds.5 mph51%30.21 "HgN/A
12:20 PM57 °FScattered clouds.2 mph51%30.21 "HgN/A
11:50 AM57 °FScattered clouds.3 mph51%30.21 "HgN/A
11:20 AM54 °FScattered clouds.3 mph58%30.24 "HgN/A
10:50 AM55 °FScattered clouds.2 mph63%30.24 "HgN/A
10:20 AM52 °FScattered clouds.2 mph67%30.24 "HgN/A
9:50 AM48 °FScattered clouds.2 mph76%30.24 "HgN/A
9:20 AM48 °FBroken clouds.1 mph76%30.24 "HgN/A
8:50 AM46 °FBroken clouds.No wind82%30.21 "Hg5 mi
8:20 AM46 °FPartly sunny.2 mph82%30.21 "Hg5 mi
7:50 AM45 °FPartly sunny.No wind87%30.21 "Hg5 mi
7:20 AM45 °FPartly sunny.1 mph87%30.21 "HgN/A
6:50 AM43 °FPassing clouds.3 mph93%30.21 "HgN/A
6:20 AM43 °FPartly cloudy.3 mph93%30.18 "HgN/A
5:50 AM45 °FPartly cloudy.1 mph87%30.18 "HgN/A
5:20 AM45 °FSprinkles. Partly cloudy.No wind87%30.18 "HgN/A
4:50 AM45 °FSprinkles. Partly cloudy.1 mph87%30.15 "HgN/A
4:20 AM43 °FSprinkles. Partly cloudy.1 mph87%30.15 "HgN/A
3:50 AM43 °FPartly cloudy.No wind87%30.18 "HgN/A
3:20 AM43 °FPartly cloudy.1 mph87%30.18 "HgN/A
2:50 AM43 °FPartly cloudy.2 mph81%30.18 "HgN/A
2:20 AM43 °FPartly cloudy.2 mph81%30.15 "HgN/A
1:50 AM43 °FPartly cloudy.2 mph81%30.15 "HgN/A
1:20 AM43 °FPartly cloudy.2 mph81%30.15 "HgN/A
12:50 AM43 °FPartly cloudy.2 mph76%30.15 "HgN/A
12:20 AM43 °FClear.2 mph76%30.15 "Hg10 mi
11:50 PM
Nov 27
41 °FClear.No wind81%30.15 "Hg10 mi
11:20 PM41 °FClear.2 mph81%30.15 "Hg10 mi
10:50 PM41 °FClear.3 mph81%30.15 "Hg10 mi
10:20 PM43 °FClear.2 mph81%30.15 "Hg10 mi
9:50 PM43 °FClear.2 mph76%30.15 "Hg10 mi
9:20 PM48 °FPassing clouds.3 mph66%30.15 "HgN/A
8:50 PM45 °FPassing clouds.3 mph76%30.15 "HgN/A
8:20 PM48 °FClear.5 mph66%30.12 "Hg10 mi
7:50 PM48 °FClear.8 mph66%30.12 "Hg10 mi
7:20 PM50 °FClear.6 mph62%30.12 "Hg10 mi
6:50 PM48 °FPassing clouds.8 mph66%30.12 "HgN/A
6:20 PM48 °FClear.12 mph66%30.12 "Hg10 mi
5:50 PM50 °FClear.10 mph62%30.12 "Hg10 mi
5:20 PM48 °FPartly cloudy.10 mph62%30.12 "HgN/A
4:50 PM50 °FSunny.12 mph58%30.12 "Hg10 mi
4:20 PM52 °FSunny.16 mph54%30.09 "Hg10 mi
Weather by CustomWeather, © 2014

See weather overviewHow to use our weather pages